MDT,Max TemperatureF,Mean TemperatureF,Min TemperatureF,Max Dew PointF,MeanDew PointF,Min DewpointF,Max Humidity, Mean Humidity, Min Humidity, Max Sea Level PressureIn, Mean Sea Level PressureIn, Min Sea Level PressureIn, Max VisibilityMiles, Mean VisibilityMiles, Min VisibilityMiles, Max Wind SpeedMPH, Mean Wind SpeedMPH, Max Gust SpeedMPH,PrecipitationIn, CloudCover, Events, WindDirDegrees
2013-4-1,71,61,51,36,30,27,42,33,19,30.01,29.97,29.93,10,10,5,26,6,38,0.00,2,,229
2013-4-2,71,58,44,36,31,27,53,37,23,30.09,30.02,29.99,10,10,10,23,6,28,0.00,1,,37
2013-4-3,78,62,46,36,31,25,57,34,16,30.19,30.12,30.04,10,10,10,15,4,21,0.01,0,,174
2013-4-4,78,63,48,28,26,23,37,23,14,30.18,30.07,29.94,10,10,10,14,6,21,0.00,1,,200
2013-4-5,78,68,57,34,28,23,29,22,16,29.99,29.93,29.88,10,10,9,16,7,22,0.00,1,,215
2013-4-6,78,64,51,30,25,21,38,23,13,30.03,29.95,29.88,10,10,10,18,6,23,0.00,0,,206
2013-4-7,78,63,48,27,22,16,37,21,11,29.94,29.84,29.63,10,10,10,22,6,28,0.00,0,,214
2013-4-8,71,58,46,39,31,10,76,43,12,29.63,29.48,29.35,10,10,4,36,16,44,0.01,4,,232
2013-4-9,55,48,42,36,25,19,70,42,26,30.06,29.83,29.60,10,10,10,24,10,33,0.00,4,,59
2013-4-10,69,54,39,25,20,18,45,29,16,30.18,30.09,30.01,10,10,10,18,9,25,0.00,0,,64
2013-4-11,75,60,44,36,27,23,46,32,17,30.05,29.93,29.81,10,10,10,22,5,25,0.00,1,,150
2013-4-12,77,64,50,30,26,19,43,25,14,29.99,29.90,29.82,10,10,10,18,9,24,0.00,0,,181
2013-4-13,82,64,46,28,24,21,37,23,11,29.89,29.77,29.55,10,10,10,25,7,29,0.00,0,,215
2013-4-14,77,72,68,30,26,23,22,18,14,29.68,29.56,29.51,10,10,10,24,12,37,0.00,1,,247
2013-4-15,75,67,59,34,29,25,32,24,16,29.64,29.55,29.45,10,8,3,39,19,46,0.00,0,,231
2013-4-16,66,54,42,39,32,21,76,53,22,29.92,29.76,29.48,10,10,5,37,15,44,0.08,5,,249
2013-4-17,57,46,35,36,24,14,81,46,21,30.23,30.04,29.92,10,10,10,20,7,26,0.01,2,,111
2013-4-18,62,48,33,25,18,12,60,34,16,30.34,30.28,30.23,10,10,10,20,5,25,0.00,0,,202
2013-4-19,69,54,39,19,17,14,39,23,14,30.33,30.19,30.01,10,10,10,14,6,21,0.00,0,,222
2013-4-20,75,60,44,28,23,16,34,24,15,30.12,30.05,30.00,10,10,10,17,5,25,0.00,0,,225
2013-4-21,82,65,48,28,22,18,34,21,10,30.16,30.06,29.94,10,10,10,18,6,26,0.00,0,,186
2013-4-22,84,68,51,27,23,19,30,19,10,30.00,29.90,29.75,10,10,10,29,6,39,0.00,0,,237
2013-4-23,69,60,51,19,11,3,21,15,10,30.18,30.06,29.89,10,10,10,29,16,38,0.00,0,,34
2013-4-24,75,58,42,18,10,3,23,14,11,30.11,30.02,29.91,10,10,10,25,7,31,0.00,0,,69
2013-4-25,62,55,48,16,14,10,22,19,16,30.01,30.00,29.98,10,10,10,16,7,,0.00,0,,68
2013-4-26,82,70,57,21,19,12,23,12,10,30.21,30.16,30.10,10,10,10,16,4,25,0.00,0,,254
2013-4-27,87,70,53,27,17,10,20,13,10,30.28,30.16,30.03,10,10,10,15,5,21,0.00,0,,90
2013-4-28,89,72,55,27,21,16,21,14,10,30.10,29.99,29.86,10,10,10,15,5,22,0.00,0,,183
2013-4-29,93,75,57,28,22,16,21,14,10,29.94,29.83,29.69,10,10,10,22,5,30,0.00,0,,220
2013-4-30,89,78,66,27,23,18,21,13,10,29.77,29.69,29.64,10,10,9,25,9,36,0.00,0,,235